Preview of NWS' New Version of Forecast
This preview is not operational and should not be used for support decisions.

Regional Weather Roundup (RWR)

Issued by National Weather Service (NWS)

                            
000
ASUS43 KDTX 180710
RWRMI 
MICHIGAN HOURLY REGIONAL WEATHER ROUNDUP
NATIONAL WEATHER SERVICE DETROIT/PONTIAC MI
200 AM EST MON FEB 18 2019

NOTE: "FAIR" INDICATES FEW OR NO CLOUDS BELOW 12,000 FEET WITH NO
SIGNIFICANT WEATHER AND/OR OBSTRUCTION TO VISIBILITY.

MIZ047>049-052>055-059>063-066>070-074>076-081>083-180800-
SOUTHEAST LOWER MICHIGAN
  
CITY           SKY/WX    TMP DP  RH WIND       PRES   REMARKS
ADRIAN         LGT SNOW  22  18  85 N10       29.92R FOG     WCI  11  
ALMA           LGT SNOW  19  15  84 N9        29.98R WCI   8          
ANN ARBOR      LGT SNOW  21  18  88 NW7       29.90R FOG     WCI  12  
BAD AXE        CLOUDY    22  15  72 NE7       29.92S WCI  14          
CARO           FAIR      20  13  72 N6        29.93S WCI  13          
DETROIT CITY   LGT SNOW  21  17  84 N8        29.91R FOG     WCI  11  
DETROIT        LGT SNOW  22  17  81 N10       29.91R WCI  11          
FLINT          FLURRIES  20  14  77 N12       29.93R WCI   8          
GROSSE ILE     CLOUDY    23  19  86 N10       29.89R WCI  12          
HILLSDALE      LGT SNOW  21  17  83 N6        29.89R WCI  14          
HOWELL         LGT SNOW  21  18  89 N3        29.91R                  

CITY           SKY/WX    TMP DP  RH WIND       PRES   REMARKS
JACKSON        LGT SNOW  20  18  92 N6        29.91R FOG     WCI  12  
LAMBERTVILLE   CLOUDY    24  21  89 N3        29.91R                  
LANSING        LGT SNOW  20  17  88 N12       29.95R WCI   8          
LAPEER         LGT SNOW  20  14  76 N7        29.92R WCI  11          
MASON          LGT SNOW  21  19  89 N6        29.93R WCI  14          
MONROE         CLOUDY    24  23  97 N9        29.90R WCI  14          
MT. CLEMENS    FLURRIES  21  21 100 N10         N/A  WCI  10          
PONTIAC        LGT SNOW  20  17  88 N8        29.88R FOG     WCI  10  
PORT HOPE        N/A     24  17  74 NE18      29.93R WCI  10          
PORT HURON     FLURRIES  19  16  86 N7        29.91R WCI  10          
TRI CITIES     LGT SNOW  20  16  84 N13       29.97R FOG     WCI   7  
MIDLAND        FLURRIES  21  14  76 N7        29.98R WCI  12          
TROY           LGT SNOW  22  18  83 N5        29.92R WCI  16          
SAGINAW HB     FLURRIES  21  19  93 N10       29.96R WCI  10          
$$
MIZ043>046-050>051-056>058-064>065-071>073-077>080-180800-
SOUTHWEST LOWER MICHIGAN
  
CITY           SKY/WX    TMP DP  RH WIND       PRES   REMARKS
BATTLE CREEK   LGT SNOW  21  17  84 N6        29.94R FOG     WCI  13  
BENTON HARBOR  CLOUDY    22  18  85 NE5       29.98R WCI  16          
BIG RAPIDS     CLOUDY    18  13  82 NE6       29.99R WCI   9          
COLDWATER      CLOUDY    23  20  91 N6        29.93R WCI  15          
FREMONT        CLOUDY    20  15  81 NE6       30.00R WCI  13          
HOLLAND        CLOUDY    21  17  84 NE7       29.98R WCI  12          
GRAND RAPIDS   CLOUDY    20  15  81 NE12      29.96R WCI   8          
IONIA          FLURRIES  19  15  83 N10       29.95R WCI   8          
KALAMAZOO      FAIR      21  17  84 N7        29.95R FOG     WCI  12  
LUDINGTON      FAIR      18  12  77 NE5       30.04R WCI  11          
MARSHALL       LGT SNOW  21  21 100 CALM      29.93R                  
MOUNT PLEASANT FLURRIES  19  13  76 N8        29.98R WCI   9          
MUSKEGON       LGT SNOW  22  15  75 NE8       30.01R WCI  12          
SOUTH HAVEN    FLURRIES  22  18  86 NE5       29.97R WCI  16          
$$
MIZ016>042-180800-
NORTHERN LOWER MICHIGAN
  
CITY           SKY/WX    TMP DP  RH WIND       PRES   REMARKS
ALPENA         CLOUDY    17   8  67 NE13      30.03S WCI   4          
BEAVER ISLAND  MOCLDY    13   8  79 NE6       30.09S WCI   4          
BELLAIRE       CLOUDY    15   8  72 N5        30.07S WCI   8          
CADILLAC       CLOUDY    15   8  73 NE7       29.97R WCI   5          
CHARLEVOIX     MOCLDY    15   8  73 NE5       30.10S WCI   7          
FRANKFORT      MOCLDY    18  10  71 NE3       30.06S                  
GAYLORD        CLOUDY    11   8  88 NE7       29.99R WCI   0          
GRAYLING       FAIR      14   8  78 NE9       29.98R WCI   2          
HARBOR SPRINGS MOCLDY    16   8  70 NE8       30.06S WCI   5          
HOUGHTON LAKE  CLOUDY    14   8  77 N6        29.99R WCI   5          
MANISTEE       MOCLDY    17  11  77 NE9       30.04R WCI   6          
OSCODA         CLOUDY    21  13  73 NE14      29.98R WCI   8          
PELLSTON       CLOUDY     8   3  80 NE7       30.08S WCI  -3          
ROGERS CITY    CLOUDY    18  10  70 NE10G18   30.07S WCI   6          
TRAVERSE CITY  CLOUDY    19  10  68 NE10      30.05R WCI   7          
$$
MIZ007>008-015-180800-
EASTERN UPPER MICHIGAN
  
CITY           SKY/WX    TMP DP  RH WIND       PRES   REMARKS
KINROSS        FAIR       8   2  76 N8        30.10S WCI  -4          
MACKINAC ISLAN MOCLDY    14   7  75 N9G20     30.08S WCI   1          
NEWBERRY       FAIR       7   3  84 MISG      30.11R                  
S. S. MARIE    FAIR      13   3  64 NE7       30.11S WCI   3          
MUNISING         N/A     20  12  71 E9        30.13R WCI   9          
$$
MIZ004>006-011>014-085-180800-
CENTRAL UPPER MICHIGAN
  
CITY           SKY/WX    TMP DP  RH WIND       PRES   REMARKS
MANISTIQUE     MOCLDY    11   4  73 N7        30.10R WCI   1          
ESCANABA       CLOUDY    14  10  84 NW6       30.12S WCI   5          
MENOMINEE      CLOUDY    14  11  87 NW7       30.13R WCI   4          
SAWYER-GWINN   LGT SNOW  17  13  86 N12       30.08S WCI   4          
$$
MIZ001>003-009>011-084-180800-
WESTERN UPPER MICHIGAN
  
CITY           SKY/WX    TMP DP  RH WIND       PRES   REMARKS
IRON MOUNTAIN  MOCLDY    12   7  80 NW10      30.10S WCI  -1          
HOUGHTON       FAIR       7  -2  66 NE13      30.19R WCI  -9          
COPPER HARBOR    N/A     11   3  70 NE14      30.23R WCI  -5          
IRONWOOD       FAIR       4   0  83 N5        30.21R WCI  -5          
$$

ABBREVIATIONS USED IN REMARKS
   TC - TEMPERATURE IN CELSIUS
  WCI - WIND CHILL INDEX
   HX - HEAT INDEX
  VSB - VISIBILITY